Location: Carimao
(10.4546°N, 66.7419°W)
Time: 08:25:08
(UTC+00:00)

ATLAS 2AS CENTAUR RB - Pass Details

Date: 19 May 2024
Orbit: 274 x 22775 km, 12.6° (Epoch: 22 June)

Event Time Altitude Azimuth Distance (km) Brightness Sun altitude
Rises 19:51:09 0° 248° (WSW) 2,625 5.4 39.2°
Reaches altitude 10° 19:52:27 10° 244° (WSW) 2,062 5.0 38.9°
Maximum altitude 19:56:41 66° 161° (SSE) 1,380 3.7 37.9°
Drops below altitude 10° 20:20:50 10° 82° (E) 10,188 7.3 32.2°
Sets 20:47:16 0° 81° (E) 17,040 8.3 26.0°
